Location: Newark
(45.4422°N, 16.2769°E)
Time: 06:50:45
(UTC+00:00)

Courier 1B Rocket - Pass Details

Date: 07 December 2019
Orbit: 920 x 1202 km, 28.2° (Epoch: 20 January)

Event Time Altitude Azimuth Distance (km) Brightness Sun altitude
Rises 09:25:29 0° 242° (WSW) 3,582 8.1 19.5°
Reaches altitude 10° 09:29:25 10° 219° (SW) 2,613 7.8 19.8°
Maximum altitude 09:32:36 14° 188° (S) 2,297 8.4 19.9°
Drops below altitude 10° 09:35:47 10° 157° (SSE) 2,603 9.5 20.1°
Sets 09:39:41 0° 134° (SE) 3,560 9.0 20.3°
